Погода в Татеве

Россия / Тверская область     56°09′52″N   33°21′27″E
темп.,
°C
ветер,
м/с
пор.,
м/с
влажн.,
%
обл.,
%
осадки,
мм/ч
давл.,
гПа
погр.,
м
13 апреля, вт
вт1300:00+9вюв2889100 0.0 1024237
03:00+8вюв2596100 0.2 1023127
06:00+8юв2296100 0.0 102229
09:00+11ююв238190 0.0 1021240
12:00+16ю3464100 0.0 1021751
15:00+18ю4751100 0.0 10201410
18:00+16юв3862100 0.1 1018240
21:00+12юв3117657 0.4 1018216
14 апреля, ср
ср1400:00+10ююв238770 0.1 101866
03:00+10ю259199 0.1 1017135
06:00+9ююв2796100 0.1 1016185
09:00+11ю3690100 0.2 1017378
12:00+13ю347571 0.4 1017765
15:00+13зюз2375100 1.8 1016519
18:00+12ссз238397 0.4 1017106
21:00+8с3696100 0.4 1019220
15 апреля, чт
чт1500:00+7с389697 0.1 1019281
03:00+7ссв4995100 0.6 1019398
06:00+6ссв4995100 1.4 1019452
09:00+7св41094100 2.3 1020502
12:00+7св51190100 0.2 1019522
15:00+7св61288100 0.2 1020639
18:00+6св61389100 0.1 1020634
21:00+5св61490100 0.1 1021707
16 апреля, пт
пт1600:00+5св61491100 0.0 1021728
03:00+5всв61490100 0.0 1021734
06:00+4св61390100 0.1 1020575
09:00+4всв61390100 0.8 1021670
12:00+8всв6128094 0.1 1021695
15:00+11всв61171100 0.1 10211055
18:00+10всв5127598 0.0 10221016
21:00+8всв61386100 0.0 1023865
17 апреля, сб
сб1700:00+7всв6137399 0.0 1023785
03:00+5всв5147462 0.3 1024607
06:00+4всв51376100 0.0 1025546
09:00+6всв51178100 0.0 1025488
12:00+10всв61063100 0.0 1027784
15:00+12всв695799 0.0 10271117
18:00+12всв6115313 0.0 10271099
21:00+8всв514565 0.0 1028675